Ponca City, OK

5:44 AM CST on November 13, 2019 (GMT -0600)
Ponca City Municipal

Weather History for KPNC - July, 2019

Change the Weather History Date:

Friday, July 19, 2019

  Actual Average Record
Temperature  
Mean Temperature 89 °F -  
Max Temperature 99 °F 96 °F 109 °F (1954)
Min Temperature 79 °F 72 °F 59 °F (2014)
Cooling Degree Days 24    
Growing Degree Days 39 (Base 50)    
Moisture  
Dew Point 69 °F    
Average Humidity 54    
Maximum Humidity 74    
Minimum Humidity 36    
Precipitation  
Precipitation 0.00 in - - ()
Sea Level Pressure  
Sea Level Pressure 29.80 in    
Wind  
Wind Speed 11 mph (South)    
Max Wind Speed 17 mph    
Max Gust Speed 30 mph    
Visibility 10 miles    
Events      
Averages and records for this station are not official NWS values.
T = Trace of Precipitation, MM = Missing Value Source: NWS Daily Summary

Daily Weather History Graph

Daily Weather History Graph

Search for Another Location

Airport or City:

Astronomy

Jul. 19, 2019 Rise Set
Actual Time 6:24 AM CDT 8:45 PM CDT
Civil Twilight 5:54 AM CDT 9:14 PM CDT
Nautical Twilight 5:17 AM CDT 9:50 PM CDT
Astronomical Twilight 4:37 AM CDT 10:30 PM CDT
Moon 10:47 PM CDT (7/19) 8:49 AM CDT (7/19)
Length of Visible Light 15h 20m
Length of Day
14h 21m
Waning Gibbous, 93% of the Moon is Illuminated
Jul 19
Waning Gibbous
Jul 24
Last Quarter
Jul 31
New
Aug 7
First Quarter
Aug 15
Full

Hourly Weather History & Observations

Time (CDT) Temp. Heat Index Dew Point Humidity Pressure Visibility Wind Dir Wind Speed Gust Speed Precip Events Conditions
12:53 AM 84.0 °F 87.8 °F 69.1 °F 61% 29.81 in 10.0 mi South 11.5 mph 23.0 mph N/A   Clear
1:53 AM 82.9 °F 86.5 °F 69.1 °F 63% 29.81 in 10.0 mi South 12.7 mph 26.5 mph N/A   Clear
2:53 AM 82.0 °F 85.5 °F 69.1 °F 65% 29.81 in 10.0 mi South 10.4 mph 18.4 mph N/A   Clear
3:53 AM 81.0 °F 84.4 °F 70.0 °F 69% 29.80 in 10.0 mi South 11.5 mph 23.0 mph N/A   Clear
4:53 AM 80.1 °F 83.2 °F 70.0 °F 71% 29.79 in 10.0 mi South 8.1 mph - N/A   Clear
5:53 AM 79.0 °F - 70.0 °F 74% 29.80 in 10.0 mi South 8.1 mph - N/A   Clear
6:53 AM 79.0 °F - 70.0 °F 74% 29.81 in 10.0 mi South 6.9 mph - N/A   Clear
7:53 AM 80.1 °F 83.6 °F 71.1 °F 74% 29.82 in 10.0 mi South 6.9 mph - N/A   Clear
8:53 AM 84.0 °F 89.0 °F 71.1 °F 65% 29.83 in 10.0 mi SSW 5.8 mph - N/A   Clear
9:53 AM 88.0 °F 93.8 °F 71.1 °F 57% 29.82 in 10.0 mi SSW 10.4 mph 20.7 mph N/A   Clear
10:53 AM 91.0 °F 97.6 °F 71.1 °F 52% 29.82 in 10.0 mi SSW 11.5 mph 19.6 mph N/A   Clear
11:53 AM 93.0 °F 100.1 °F 71.1 °F 49% 29.82 in 10.0 mi South 10.4 mph 21.9 mph N/A   Clear
12:53 PM 93.9 °F 100.8 °F 71.1 °F 47% 29.83 in 10.0 mi South 11.5 mph 20.7 mph N/A   Clear
1:53 PM 96.1 °F 104.9 °F 72.0 °F 46% 29.80 in 10.0 mi South 11.5 mph 24.2 mph N/A   Clear
2:53 PM 98.1 °F 106.5 °F 71.1 °F 42% 29.79 in 10.0 mi South 17.3 mph 24.2 mph N/A   Clear
3:53 PM 99.0 °F 106.2 °F 70.0 °F 39% 29.77 in 10.0 mi South 11.5 mph 25.3 mph N/A   Clear
4:53 PM 98.1 °F 103.0 °F 68.0 °F 37% 29.76 in 10.0 mi South 11.5 mph 29.9 mph N/A   Clear
5:53 PM 97.0 °F 100.4 °F 66.0 °F 36% 29.76 in 10.0 mi South 9.2 mph 27.6 mph N/A   Clear
6:53 PM 96.1 °F 98.8 °F 64.9 °F 36% 29.76 in 10.0 mi South 12.7 mph 25.3 mph N/A   Clear
7:53 PM 93.9 °F 97.0 °F 66.0 °F 40% 29.76 in 10.0 mi South 10.4 mph 18.4 mph N/A   Clear
8:53 PM 91.0 °F 95.2 °F 68.0 °F 47% 29.77 in 10.0 mi South 9.2 mph - N/A   Clear
9:53 PM 89.1 °F 90.3 °F 64.0 °F 43% 29.79 in 10.0 mi South 10.4 mph - N/A   Clear
10:53 PM 84.9 °F 87.1 °F 66.0 °F 53% 29.81 in 10.0 mi SSE 13.8 mph - N/A   Clear
11:53 PM 82.9 °F 87.0 °F 70.0 °F 65% 29.81 in 10.0 mi SSE 15.0 mph - N/A   Clear